Gunnison, CO

1:41 AM MST on November 21, 2017 (GMT -0700)
Gunnison County

Weather History for KGUC - January, 2012

Change the Weather History Date:

Thursday, January 12, 2012

  Actual Average Record
Temperature  
Mean Temperature 13 °F -  
Max Temperature 33 °F 24 °F 42 °F (2007)
Min Temperature -7 °F 0 °F -25 °F (2016)
Degree Days  
Heating Degree Days 52    
Moisture  
Dew Point -10 °F    
Average Humidity 42    
Maximum Humidity 84    
Minimum Humidity 17    
Precipitation  
Precipitation 0.00 in - - ()
Sea Level Pressure  
Sea Level Pressure 30.18 in    
Wind  
Wind Speed 3 mph (NW)    
Max Wind Speed 13 mph    
Max Gust Speed 17 mph    
Visibility 10 miles    
Events      
Averages and records for this station are not official NWS values.
T = Trace of Precipitation, MM = Missing Value Source: NWS Daily Summary

Daily Weather History Graph

Daily Weather History Graph

Search for Another Location

Airport or City:

Trip Planner

Search our weather history database for the weather conditions in past years. The results will help you decide how hot, cold, wet, or windy it might be!

Date:

Astronomy

Jan. 12, 2012 Rise Set
Actual Time 7:24 AM MST 5:07 PM MST
Civil Twilight 6:55 AM MST 5:36 PM MST
Nautical Twilight 6:22 AM MST 6:09 PM MST
Astronomical Twilight 5:50 AM MST 6:41 PM MST
Moon 9:12 PM MST (1/12) 9:13 AM MST (1/12)
Length of Visible Light 10h 40m
Length of Day
9h 42m
Waning Gibbous, 86% of the Moon is Illuminated
Jan 12
Waning Gibbous
Jan 16
Last Quarter
Jan 23
New
Jan 30
First Quarter
Feb 7
Full

Hourly Weather History & Observations

Time (MST) Temp. Windchill Dew Point Humidity Pressure Visibility Wind Dir Wind Speed Gust Speed Precip Events Conditions
12:15 AM 3.2 °F -4.2 °F -13.0 °F 47% 30.21 in 10.0 mi NW 3.5 mph - N/A   Clear
12:55 AM 1.4 °F -9.9 °F - N/A% 30.21 in 10.0 mi North 5.8 mph - N/A   Clear
1:15 AM 3.2 °F -6.2 °F -9.4 °F 56% 30.21 in 10.0 mi NNW 4.6 mph - N/A   Clear
1:35 AM -0.4 °F - -14.8 °F 51% 30.22 in 10.0 mi Calm Calm - N/A   Clear
2:35 AM -0.4 °F - -9.4 °F 66% 30.24 in 10.0 mi Calm Calm - N/A   Clear
2:55 AM -0.4 °F - -9.4 °F 66% 30.24 in 10.0 mi Calm Calm - N/A   Clear
3:15 AM -0.4 °F - -11.2 °F 60% 30.24 in 10.0 mi Calm Calm - N/A   Clear
3:35 AM -2.2 °F - -14.8 °F 55% 30.24 in 10.0 mi Calm Calm - N/A   Clear
4:15 AM -2.2 °F - -11.2 °F 66% 30.23 in 10.0 mi Calm Calm - N/A   Clear
4:35 AM -2.2 °F - -14.8 °F 55% 30.23 in 10.0 mi Calm Calm - N/A   Clear
4:55 AM -2.2 °F - -13.0 °F 60% 30.23 in 10.0 mi Calm Calm - N/A   Clear
5:15 AM -2.2 °F -12.5 °F -11.2 °F 66% 30.24 in 10.0 mi North 4.6 mph - N/A   Clear
6:15 AM -7.6 °F - -11.2 °F 84% 30.25 in 10.0 mi Calm Calm - N/A   Clear
6:35 AM -5.8 °F -16.7 °F -14.8 °F 65% 30.26 in 10.0 mi South 4.6 mph - N/A   Clear
7:15 AM -7.6 °F -16.5 °F -16.6 °F 65% 30.26 in 10.0 mi NE 3.5 mph - N/A   Clear
9:55 AM 5.0 °F - -7.6 °F 56% 30.28 in 10.0 mi Calm Calm - N/A   Clear
10:35 AM 10.4 °F - -5.8 °F 48% 30.25 in 10.0 mi Calm Calm - N/A   Clear
10:55 AM 12.2 °F - -7.6 °F 41% 30.24 in 10.0 mi Calm Calm - N/A   Clear
11:35 AM 17.6 °F - -7.6 °F 32% 30.21 in 10.0 mi Calm Calm - N/A   Clear
11:55 AM 17.6 °F - -7.6 °F 32% 30.18 in 10.0 mi Calm Calm - N/A   Clear
12:35 PM 21.2 °F 16.4 °F -7.6 °F 28% 30.15 in 10.0 mi SSW 3.5 mph - N/A   Clear
12:55 PM 24.8 °F 17.9 °F -7.6 °F 24% 30.14 in 10.0 mi WSW 5.8 mph - N/A   Clear
1:55 PM 28.4 °F 23.3 °F -5.8 °F 23% 30.10 in 10.0 mi WSW 4.6 mph - N/A   Clear
2:15 PM 30.2 °F 22.6 °F -5.8 °F 21% 30.09 in 10.0 mi WSW 8.1 mph - N/A   Clear
2:35 PM 32.0 °F 23.6 °F -5.8 °F 20% 30.08 in 10.0 mi WSW 10.4 mph - N/A   Clear
2:55 PM 33.8 °F 24.8 °F -5.8 °F 18% 30.07 in 10.0 mi SW 12.7 mph 17.3 mph N/A   Clear
3:55 PM 33.8 °F 27.7 °F -7.6 °F 17% 30.08 in 10.0 mi North 6.9 mph - N/A   Clear
4:35 PM 30.2 °F 20.2 °F -9.4 °F 18% 30.10 in 10.0 mi WNW 12.7 mph - N/A   Clear
4:55 PM 28.4 °F 20.4 °F -11.2 °F 18% 30.10 in 10.0 mi WNW 8.1 mph - N/A   Clear
5:15 PM 28.4 °F - -9.4 °F 19% 30.11 in 10.0 mi Calm Calm - N/A   Clear
5:55 PM 24.8 °F 17.9 °F -9.4 °F 22% 30.12 in 10.0 mi WSW 5.8 mph - N/A   Clear
6:35 PM 23.0 °F 18.4 °F -9.4 °F 24% 30.13 in 10.0 mi WNW 3.5 mph - N/A   Clear
6:55 PM 19.4 °F 9.5 °F -11.2 °F 25% 30.14 in 10.0 mi NNW 8.1 mph - N/A   Partly Cloudy
7:15 PM 17.6 °F 10.7 °F -9.4 °F 30% 30.14 in 10.0 mi WSW 4.6 mph - N/A   Partly Cloudy
8:15 PM 15.8 °F 10.2 °F -7.6 °F 35% 30.14 in 10.0 mi West 3.5 mph - N/A   Clear
9:35 PM 10.4 °F 2.2 °F -9.4 °F 41% 30.17 in 10.0 mi NNW 4.6 mph - N/A   Clear
10:15 PM 8.6 °F 0.1 °F -9.4 °F 44% 30.17 in 10.0 mi North 4.6 mph - N/A   Clear
10:35 PM 8.6 °F -1.3 °F -9.4 °F 44% 30.17 in 10.0 mi North 5.8 mph - N/A   Clear
10:55 PM 6.8 °F -7.8 °F -9.4 °F 48% 30.18 in 10.0 mi NNW 10.4 mph - N/A   Clear
11:16 PM 6.8 °F -3.5 °F -9.4 °F 48% 30.19 in 10.0 mi North 5.8 mph - N/A   Clear
11:35 PM 3.2 °F -4.2 °F -9.4 °F 56% 30.19 in 10.0 mi ENE 3.5 mph - N/A   Clear